Location: Bakov nad Jizerou
(50.4784°N, 14.9394°E)
Time: 09:21:07
(UTC+00:00)

Cosmos 1844 Rocket - Pass Details

Date: 16 June 2021
Orbit: 823 x 846 km, 71.0° (Epoch: 04 August)

Event Time Altitude Azimuth Distance (km) Brightness Sun altitude
Rises 20:34:41 0° 329° (NNW) 3,411 8.3 -9.4°
Reaches altitude 10° 20:37:08 10° 328° (NNW) 2,474 6.8 -9.6°
Maximum altitude 20:42:48 75° 245° (WSW) 880 2.8 -10.1°
Enters shadow 20:47:54 13° 161° (SSE) 2,256 4.3 -10.5°
